OPS 7613 (P/L 1)

导读

OPS 7613 (P/L 1)是美国于1969年9月30日发射的军用卫星,同批次多颗编号卫星同日发射入轨。作为冷战时期美国航天计划组成部分,它长期以保密编号运行,这类编号常对应美国军方侦察技术或航天试验任务。该卫星运行在近地轨道,完成既定任务后已成为空间在轨垃圾,是早期美国太空军事化探索的见证,标注着冷战航天发展的历史坐标。

基本信息
目录编号:
4256
目录名称:
OPS 7613 (P/L 1)
国际标识:
1969-082B
轨道中心:
EARTH
卫星名称:
OPS 7613 (P/L 1)
卫星全名:
--
卫星状态:
在轨 (已飞行20800 天)
发射日期:
1969-09-30 UTC
国别 :
美国 (US)
星等 :
--
轨道信息
数据来源 国际轨道数据
星历时间: 2026-09-11T01:39:22+0800
11小时前
查看轨道信息
半长轴: 7274.655km
偏心率: 0.0021593
轨道倾角: 70.009°
近地点辐角 308.654°
升交点赤经 141.235°
平近点角 51.264°
近地点: 880.809km
远地点: 912.227km
周期: 102.915分钟
每日圈数: 13.992141
详细信息
使用方式:
暂无
2D轨道图
3D轨道图
轨道高度分析图
轨道倾角分析图
轨道综合分析图
查看轨道综合分析图
交会数据列表
事件ID 空间交会对象 最接近时刻(TCA) 交会距离 交会风险概率(CRP) 交会风险指数(CRI) 操作
CDM_260911-204000-425605-668225
2026-09-11T
20:40:41+0000
1.052 km
极远距离
2.025828E-5 中风险 0.61
CDM_260911-171700-425603-162924
2026-09-11T
17:17:36+0000
1.883 km
极远距离
2.823069E-6 低风险 0.44
与全量物体交会距离演化趋势
与全量物体交会风险概率演化趋势